Flag for U.S.A. Weather past 2 weeks in Mountain View, California, U.S.A.

Now
61 °F

Partly sunny.


Feels Like: 61 °F
Forecast: 52 / 60 °F
Wind: 8 mph from Southeast

Location: Moffett Field

Current Time: Dec 18, 2014 at 4:53:04 PM

Latest Report: Dec 18, 2014 at 3:56 PM


Visibility: 10 mi

Pressure: 30.13 "Hg

Humidity: 65%

Dew point: 49 °F

Location of Mountain ViewLocation

Historic Weather in Mountain View — Graph

°F

Mountain View temperature yesterday

Maximum temperature yesterday: 58 °F (at 2:56 PM)
Minimum temperature yesterday: 48 °F (at 3:56 AM)
Average temperature yesterday: 52 °F

Past Weeks' High & Low Weather Summary

 TemperatureHumidityPressure
High69 °F (Dec 6, 1:56 PM)100% (Dec 6, 8:56 AM)30.24 "Hg (Dec 6, 8:56 AM)
Low43 °F (Dec 13, 6:56 AM)53% (Dec 8, 2:56 PM)29.57 "Hg (Dec 11, 7:56 AM)
Average57 °F86%30.02 "Hg
* Reported Dec 3 3:56 PM — Dec 18 3:56 PM, Mountain View, Weather by CustomWeather, © 2014

Note: Actual official high and low records may vary slightly from our data, if they occured in-between our weather recording intervals... More about our weather records

Advertising

Mountain View weather history for previous 24 hours

 ConditionsComfort  
Time TempWeatherWind HumidityBarometerVisibility
3:56 PM
Dec 18
61 °FPartly sunny.8 mph65%30.13 "Hg10 mi
2:56 PM62 °FPartly sunny.7 mph62%30.14 "Hg10 mi
1:56 PM62 °FPartly sunny.No wind60%30.14 "Hg10 mi
12:56 PM62 °FPassing clouds.5 mph62%30.15 "Hg10 mi
11:56 AM60 °FOvercast.No wind65%30.18 "Hg10 mi
10:56 AM59 °FPartly sunny.5 mph67%30.19 "Hg10 mi
9:56 AM58 °FOvercast.10 mph72%30.18 "Hg10 mi
8:56 AM54 °FOvercast.5 mph80%30.16 "Hg10 mi
7:56 AM53 °FOvercast.9 mph80%30.14 "Hg10 mi
6:56 AM53 °FOvercast.8 mph80%30.13 "Hg10 mi
5:56 AM53 °FMostly cloudy.13 mph80%30.11 "Hg10 mi
4:56 AM53 °FPassing clouds.15 mph80%30.09 "Hg10 mi
3:56 AM53 °FMostly cloudy.12 mph77%30.09 "Hg10 mi
2:56 AM52 °FPassing clouds.13 mph80%30.09 "Hg10 mi
1:56 AM52 °FOvercast.8 mph83%30.09 "Hg10 mi
12:56 AM52 °FOvercast.14 mph83%30.08 "Hg10 mi
11:56 PM
Dec 17
52 °FOvercast.10 mph86%30.08 "Hg10 mi
10:56 PM52 °FOvercast.7 mph86%30.08 "Hg10 mi
9:56 PM52 °FOvercast.6 mph86%30.09 "Hg10 mi
8:56 PM52 °FMostly cloudy.12 mph86%30.08 "Hg10 mi
7:56 PM52 °FOvercast.8 mph93%30.09 "Hg10 mi
6:56 PM53 °FLight rain. Mostly cloudy.7 mph93%30.08 "Hg10 mi
5:56 PM54 °FLight rain. Overcast.6 mph90%30.07 "Hg10 mi
4:56 PM55 °FLight rain. Mostly cloudy.5 mph80%30.06 "Hg8 mi
Weather by CustomWeather, © 2014

See weather overviewHow to use our weather pages